Other Public Products
Issued by NWS Grand Forks, ND

Home | Current Version | Previous Version | Graphics & Text | Print | Product List | Glossary On
Versions: 1 2 3 4 5 6 7 8 9 10 11 12 13 14 15 16 17 18 19 20 21 22 23 24 25 26 27 28 29 30 31 32 33 34 35 36 37 38 39 40 41 42 43 44 45 46 47 48 49 50
000
FPUS83 KFGF 271131
OPUFGF
PRAIRIE TO PINES WEATHER ROUNDUP
NATIONAL WEATHER SERVICE EASTERN NORTH DAKOTA/GRAND FORKS ND
600 AM CDT FRI MAR 27 2015

 **SATELLITE DATA USED TO AUGMENT SKY COVER AT AUTOMATED STATIONS**
 *****  WEATHER ACROSS EASTERN NORTH DAKOTA  *****

CITY           SKY/WX    TMP DP  RH WIND       PRES   REMARKS
GRAND FORKS    PTCLDY    13   9  84 S5        30.26F WCI   5
GRAND FORKS AF MOCLDY    14  10  84 S3        30.25F
GRAND CITY NWS   N/A     14 N/A N/A N3          N/A
BUXTON           N/A     17  13  85 CALM        N/A
DEVILS LAKE    CLOUDY    21  16  79 S9        30.18F WCI  11
FARGO          FAIR      11   7  84 CALM      30.28S
WAHPETON ARPT  MOSUNNY   10   5  79 CALM      30.29R
$$

 *****  WEATHER ACROSS CENTRAL AND WESTERN NORTH DAKOTA  *****

CITY           SKY/WX    TMP DP  RH WIND       PRES   REMARKS
JAMESTOWN      MOCLDY    20  15  81 S8        30.22F WCI  10
BISMARCK       CLOUDY    26  16  65 SE10      30.17F WCI  16
MINOT          LGT SNOW  28  23  81 S6        30.06F WCI  22
MINOT AFB      LGT SNOW  28  28 100 S12       30.05F FOG     WCI  18
GARRISON         N/A     29  20  69 S13       30.09F WCI  19
WILLISTON      CLOUDY    37  30  75 SE7       29.98F
DICKINSON      CLOUDY    33  29  85 S14       30.00F WCI  23
HETTINGER      FLURRIES  32  28  85 SE12      30.06F WCI  23
$$

 *****  OTHER OBSERVATIONS NORTHEAST NORTH DAKOTA  *****

CITY           SKY/WX    TMP DP  RH WIND       PRES   REMARKS
WALHALLA         N/A     19   9  63 S6        30.22F WCI  11
LANGDON        NOT AVBL
CAVALIER       FAIR      19  10  68 S7        30.24F WCI  10
GRAFTON        NOT AVBL
CANDO          CLOUDY    23  19  86 S13       30.18F WCI  11
FORT TOTTEN    NOT AVBL
ROLLA          CLOUDY    23  19  86 S16       30.12F WCI  10
RUGBY          FAIR      25  18  74 S15       30.12F WCI  12
 ***** THE ABOVE OBSERVATIONS ARE NON NWS ARE NOT QUALITY
        CONTROLLED AND MAY MIS-REPORT RAIN FOR SNOW...
$$

 *****  OTHER OBSERVATIONS SOUTHEAST NORTH DAKOTA *****

CITY           SKY/WX    TMP DP  RH WIND       PRES   REMARKS
COOPERSTOWN    NOT AVBL
VALLEY CITY    FAIR      16  16 100 S5        30.24F WCI   9
OAKES            N/A     16  16 100 S3        30.26F
GWINNER          N/A     18  14  86 W6          N/A  WCI   9
SHEYENNE NWR     N/A     10   7  87 W2        29.95S
BUFFALO        NOT AVBL
WYNDMERE         N/A     12  10  92 W2          N/A
 ***** THE ABOVE OBSERVATIONS ARE NON NWS ARE NOT QUALITY
       CONTROLLED AND MAY MIS-REPORT RAIN FOR SNOW...
$$

  *****  WEATHER ACROSS NORTHERN MINNESOTA  *****

CITY           SKY/WX    TMP DP  RH WIND       PRES   REMARKS
FLAG ISLAND    CLEAR      7   3  85 CALM      30.24F
WARROAD        CLEAR     14  10  85 CALM      30.25F
ROSEAU         CLEAR     12   9  85 S3        30.24F
HALLOCK        PTCLDY    12   7  79 S5        30.25S WCI   4
THF RVR FALLS  CLEAR     16  16 100 SE5       30.25F WCI   9
HALSTAD          N/A      9   7  92 S2          N/A
FOSSTON        CLEAR      7   1  78 CALM      30.25F
BAUDETTE       CLEAR      8   4  83 CALM      30.24F
WASKISH        CLEAR      7   3  85 CALM      30.25F
CROOKSTON      PTCLDY    12   9  85 S3        30.27F
$$
  *****  WEATHER ACROSS CENTRAL AND WEST MINNESOTA  *****

CITY           SKY/WX    TMP DP  RH WIND       PRES   REMARKS
BEMIDJI        CLEAR      4  -1  82 CALM      30.25F
PARK RAPIDS    CLEAR      9   1  70 CALM      30.25R
WADENA         CLEAR      9   3  78 E3        30.25F
DETROIT LAKES  CLEAR     12  10  92 CALM      30.25F
MOORHEAD       PTCLDY    12  12 100 CALM      30.28F
FERGUS FALLS   CLEAR     12   7  79 CALM      30.30S
ELBOW LAKE     FAIR      13  11  92 CALM      30.26S
MORRIS MN      CLEAR     12  10  92 CALM      30.26F
STAPLES        CLEAR      9   1  72 CALM      30.26S
WHEATON        PTCLDY    12  10  92 CALM      30.30S
$$
  *****  WEATHER ELSEWHERE ACROSS MINNESOTA  *****

CITY           SKY/WX    TMP DP  RH WIND       PRES   REMARKS
DULUTH         CLEAR     11   3  70 N5        30.22R WCI   3
INTRNTL FALLS  CLEAR      4   0  83 CALM      30.26R
ELY            CLEAR      1  -2  85 CALM      30.23S
CLOQUET        CLEAR      9   1  72 NW6       30.24R WCI  -1
BRAINERD       CLEAR     10   4  76 CALM      30.27R
HIBBING        CLEAR      2  -2  83 CALM      30.24S
ALEXANDRIA     CLEAR     15   4  61 CALM      30.26S
SAINT CLOUD    CLEAR     12   6  77 NW3       30.27R
MINNEAPOLIS    FAIR      19   3  49 N7        30.26S WCI  10
$$

  *****  WEATHER ACROSS SOUTH DAKOTA  *****

CITY           SKY/WX    TMP DP  RH WIND       PRES   REMARKS
SIOUX FALLS    PTCLDY    15   9  76 CALM      30.26R
BROOKINGS      NOT AVBL
WATERTOWN      CLEAR     14   9  80 CALM      30.23F
HURON          CLEAR     11   8  88 CALM      30.29R
SISSETON         N/A     15  11  83 NW5       30.27S WCI   8
ABERDEEN       PTCLDY    15  11  83 SW3       30.28S
MITCHELL       CLEAR     14  11  87 W5        30.31R WCI   6
PIERRE         CLOUDY    26  17  68 SE12      30.21F WCI  16
MOBRIDGE       CLOUDY    26  13  57 S16       30.18F WCI  14
RAPID CITY     CLOUDY    33  28  81 SE7       30.06F
$$

  *****  SOME WEATHER IN NEARBY STATES *****

CITY           SKY/WX    TMP DP  RH WIND       PRES   REMARKS
GLASGOW MT     MOCLDY    35  30  82 CALM      29.95S
GREAT FALLS MT CLOUDY    48  33  56 SW14      30.07S
CHEYENNE WY    CLOUDY    48  28  46 NW15G29   30.15R
SCOTTSBLUFF NE LGT RAIN  37  35  92 SE8       30.15S
OMAHA NE       PTCLDY    24  18  77 N6        30.26R WCI  17
DES MOINES IA  PTCLDY    28  17  63 N9        30.20S WCI  19
DAVENPORT IA   CLOUDY    28  17  63 NE13      30.15R WCI  17
CHICAGO IL     LGT SNOW  24  18  77 N17       30.11R WCI  11
EAU CLAIRE WI  CLEAR     17   5  59 N5        30.23R WCI  10
LA CROSSE WI   CLEAR     19   9  65 N3        30.23R
$$

  *****  SOME NATIONAL WEATHER *****

CITY           SKY/WX    TMP DP  RH WIND       PRES   REMARKS
LA GUARDIA NY  LGT RAIN  40  35  83 NW8       29.77R
RALEIGH NC     CLOUDY    56  49  77 N12G20    29.70R
ATLANTA GA     CLOUDY    48  44  86 NW10G18   29.76R
NEW ORLEANS LA CLOUDY    54  45  71 N14       30.00R
OKLAHOMA CITY  CLOUDY    53  35  50 N15       30.10R
ALBUQUERQUE NM PTCLDY    48  19  31 CALM      30.26R
SALT LAKE CITY CLEAR     42  30  62 SE8       30.32S
LOS ANGELES CA CLEAR     63  50  62 CALM      30.02F
BOISE ID       CLEAR     48  40  73 SE8       30.23F
SEATTLE WA     CLEAR     51  47  86 N3        30.06F
$$

*** WEATHER ACROSS MANITOBA...SASKATCHEWAN AND ONTARIO ***
                ***ONTARIO***

CITY           SKY/WX    TMP DP  RH WIND       PRES   REMARKS
GERALDTON      CLEAR    -20 -26  76 W2        30.21S
THUNDER BAY    CLEAR      1  -2  85 VRB2      30.31R
SIOUX LOOKOUT  CLEAR     -9 -13  84 S3        30.23S
TORONTO        MOCLDY    30  23  74 N16       29.84S WCI  19
BIG TROUT LK   CLEAR    -15 -18  84 VRB2      30.18F
PICKLE LAKE    CLEAR     -6 -13  71 W6        30.20  WCI -18
DRYDEN         CLEAR      3   0  85 SW3       30.23R
KENORA         CLEAR     10   5  79 SW3       30.23F
$$
                *** MANITOBA***

CITY           SKY/WX    TMP DP  RH WIND       PRES   REMARKS
BRANDON        CLOUDY    25  21  86 SE7       30.12F WCI  17
DAUPHIN        PTCLDY    21  16  79 VRB2      30.09F
ISLAND LAKE    CLEAR     -8 -11  84 SE3       30.18F
PILOT MOUND      N/A     23  19  86 S14         N/A  WCI  11
THE PAS        CLOUDY    19  16  86 SE6       30.04F WCI  11
THOMPSON       CLEAR      5  -4  66 S5        30.09F WCI  -4
WINNIPEG       MOCLDY    14   5  67 S8        30.24F WCI   3
LYNN LAKE      CLEAR     12   7  79 CALM      29.99F
CHURCHILL      CLEAR     -2  -9  71 W8        30.02F WCI -17
GILLAM         CLEAR      1 -11  55 SW6       30.10F WCI -10
$$
                ***SASKATCHEWAN***

CITY           SKY/WX    TMP DP  RH WIND       PRES   REMARKS
ESTEVAN        CLOUDY    32  30  93 SE13      29.98F WCI  22
KINDERSLEY     MOCLDY    36  32  87 W8        29.91F
LLOYDMINSTER   LGT RAIN  37  32  81 NW7       29.87S
PRINCE ALBERT  CLOUDY    32  32 100 SE3       29.88F FOG
REGINA         MOCLDY    32  30  93 SE12      29.91F WCI  23


USA.gov is the U.S. government's official web portal to all federal, state and local government web resources and services.